Weather History for Campo, CA

Change the Weather History Date:

Thursday, January 17, 2013

  Actual Average Record
Temperature  
Mean Temperature 58 °F 49 °F  
Max Temperature 64 °F 63 °F 82 °F (1971)
Min Temperature 52 °F 34 °F 13 °F (2007)
Degree Days  
Heating Degree Days 7 16  
Month to date heating degree days 380 283  
Since 1 July heating degree days 1378 1389  
Cooling Degree Days 0 0  
Month to date cooling degree days 0 0  
Year to date cooling degree days 0 0  
Growing Degree Days 8 (Base 50)    
Moisture  
Dew Point 12 °F    
Average Humidity 17    
Maximum Humidity 20    
Minimum Humidity 13    
Precipitation  
Precipitation 0.00 in 0.10 in 1.10 in (1990)
Month to date precipitation 0.32 1.67  
Year to date precipitation 0.32 1.67  
Since 1 July precipitation 4.79 7.25  
Snow  
Snow 0.00 in - - ()
Month to date snowfall 0.0  
Year to date snowfall 0.0  
Since 1 July snowfall 0.0  
Snow Depth 0.00 in    
Sea Level Pressure  
Sea Level Pressure 30.08 in    
Wind  
Wind Speed 22 mph (NE)    
Max Wind Speed 36 mph    
Max Gust Speed 46 mph    
T = Trace of Precipitation, MM = Missing Value Source: NWS Daily Summary

Daily Weather History Graph

Daily Weather History Graph

Search for Another Location

Airport:

Trip Planner

Search our weather history database for the weather conditions in past years. The results will help you decide how hot, cold, wet, or windy it might be!

Date:

Astronomy

Jan. 17, 2013 Rise Set
Actual Time 6:47 AM PST 5:05 PM PST
Civil Twilight 6:20 AM PST 5:31 PM PST
Nautical Twilight 5:50 AM PST 6:01 PM PST
Astronomical Twilight 5:21 AM PST 6:31 PM PST
Moon 10:21 AM PST (1/17) 11:34 PM PST (1/17)
Length of Visible Light 11h 10m
Length of Day
10h 17m
Waxing Crescent, 39% of the Moon is Illuminated
Jan 17
Waxing Crescent
Jan 18
First Quarter
Jan 26
Full
Feb 3
Last Quarter
Feb 9
New

Hourly Weather History & Observations

Time (PST) Temp. Dew Point Humidity Pressure Visibility Wind Dir Wind Speed Gust Speed Precip Events Conditions
12:52 AM 54.0 °F 14.0 °F 21% 30.04 in - NE 33.4 mph 44.9 mph N/A   Unknown
1:52 AM 54.0 °F 12.9 °F 20% 30.05 in - NE 28.8 mph 39.1 mph N/A   Unknown
2:52 AM 54.0 °F 12.9 °F 20% 30.04 in - ENE 29.9 mph 40.3 mph N/A   Unknown
3:52 AM 53.1 °F 12.0 °F 20% 30.05 in - ENE 25.3 mph 36.8 mph N/A   Unknown
4:52 AM 54.0 °F 12.0 °F 19% 30.07 in - NE 19.6 mph 27.6 mph N/A   Unknown
5:52 AM 53.1 °F 12.0 °F 20% 30.08 in - NNE 16.1 mph 32.2 mph N/A   Unknown
6:52 AM 53.1 °F 12.0 °F 20% 30.11 in - NNE 10.4 mph 29.9 mph N/A   Unknown
7:52 AM 55.0 °F 12.9 °F 19% 30.11 in - NE 17.3 mph 31.1 mph N/A   Unknown
8:52 AM 57.9 °F 12.9 °F 17% 30.12 in - NE 20.7 mph 33.4 mph N/A   Unknown
9:52 AM 60.1 °F 12.9 °F 16% 30.12 in - NE 23.0 mph 33.4 mph N/A   Unknown
10:52 AM 61.0 °F 14.0 °F 16% 30.09 in - NE 21.9 mph 31.1 mph N/A   Unknown
11:52 AM 62.1 °F 12.9 °F 15% 30.06 in - NE 21.9 mph 36.8 mph N/A   Unknown
12:52 PM 63.0 °F 12.9 °F 14% 30.04 in - NE 15.0 mph 33.4 mph N/A   Unknown
1:52 PM 64.0 °F 14.0 °F 14% 30.03 in - NE 15.0 mph 21.9 mph N/A   Unknown
2:52 PM 62.1 °F 10.9 °F 13% 30.05 in - East 17.3 mph - N/A   Unknown
3:52 PM 59.0 °F 10.9 °F 15% 30.07 in - ENE 24.2 mph 28.8 mph N/A   Unknown
4:52 PM 55.9 °F 12.0 °F 18% 30.09 in - ENE 19.6 mph 26.5 mph N/A   Unknown
5:52 PM 52.0 °F 12.9 °F 21% 30.10 in - NE 9.2 mph - N/A   Unknown
6:52 PM 53.1 °F 12.0 °F 20% 30.11 in - Variable 3.5 mph - N/A   Unknown
7:52 PM 53.1 °F 12.0 °F 20% 30.10 in - Variable 3.5 mph - N/A   Unknown
8:52 PM 53.1 °F 12.0 °F 20% 30.09 in - ENE 10.4 mph - N/A   Unknown
9:52 PM 52.0 °F 12.0 °F 20% 30.09 in - NE 10.4 mph - N/A   Unknown
10:52 PM 52.0 °F 12.0 °F 20% 30.08 in - East 3.5 mph - N/A   Unknown
11:52 PM 53.1 °F 12.0 °F 20% 30.07 in - Variable 4.6 mph - N/A   Unknown